ONEWEB-0329 (49107 NORAD) Tracking and Keplerian Element Data

This shows tracking and keplerian element data for the satellite.

Feedback or suggestion? Click here.




ElementValue
Catalog49107
NameONEWEB-0329
Epoch Orbit351
Epoch Day300.58334491
Epoch Year2021
RAAN344.3898
Inclination87.5471
Eccentricity0.0024412
Argument of Perigee71.1678
Mean Anonmoly292.6575
Mean Motion14.30644271
Decay Rate-0.01326961
L11 49107U 21075AJ 21300.58334491 -.01326961 00000-0 -54520+0 0 9994
L22 49107 87.5471 344.3898 0024412 71.1678 292.6575 14.30644271 3514

Live tracking and technical data element details for ONEWEB-0329 (NORAD 49107). ONEWEB-0329 can be tracked NOW for your location showing map with azimuth and elevation plus other details from your city location.

Track the satellite on the map from your city or location and see movement details for azimuth, elevation, latitude, longitude, range, height, and movement on the map or in text.







IsCatalogInMostPopularTable: catalog: 49107, numindb: 11
Update: records affected: 1



GetName: 49107 ONEWEB-0329

Hit Count: updated at: Thu, 28 Oct 2021 11:52:17 GMT